This is the latest recevied weather packets stored in our database for station/object N3WGC-14. If no packets are shown the sender has not sent any weather packets the latest 10 day(s).
| Time | Temp. | Humidity | Pressure | Rain* | Wind** | Luminosity | Snow |
|---|---|---|---|---|---|---|---|
| 1778084440 | 17.22° C | 93% | 1009.8 hPa | 0.25 mm | - | - | - |
| 1778084140 | 17.22° C | 93% | 1009.8 hPa | 0.76 mm | - | - | - |
| 1778083840 | 17.22° C | 93% | 1009.9 hPa | 1.02 mm | - | - | - |
| 1778083540 | 17.22° C | 93% | 1010 hPa | 1.27 mm | - | - | - |
| 1778083240 | 17.22° C | 93% | 1009.9 hPa | 1.52 mm | - | - | - |
| 1778082939 | 17.22° C | 94% | 1009.8 hPa | 1.52 mm | - | - | - |
| 1778082639 | 16.67° C | 94% | 1009.7 hPa | 1.78 mm | - | - | - |
| 1778082339 | 16.67° C | 94% | 1009.9 hPa | 1.78 mm | - | - | - |
| 1778082039 | 16.67° C | 94% | 1010.2 hPa | 1.78 mm | - | - | - |
| 1778081739 | 16.67° C | 93% | 1010.4 hPa | 1.78 mm | - | - | - |
| 1778081439 | 16.67° C | 93% | 1010.6 hPa | 1.78 mm | - | - | - |
| 1778081139 | 16.67° C | 92% | 1010.6 hPa | 1.78 mm | - | - | - |
| 1778080838 | 16.67° C | 92% | 1010.7 hPa | 2.03 mm | - | - | - |
| 1778080538 | 17.22° C | 91% | 1010.8 hPa | 1.52 mm | - | - | - |
| 1778080238 | 17.22° C | 91% | 1010.7 hPa | 1.27 mm | - | - | - |
| 1778079938 | 17.22° C | 90% | 1010.6 hPa | 1.02 mm | - | - | - |
| 1778079638 | 17.22° C | 89% | 1010.7 hPa | 0.76 mm | - | - | - |
| 1778079338 | 17.22° C | 88% | 1010.6 hPa | 0.76 mm | - | - | - |
| 1778079038 | 17.22° C | 88% | 1010.7 hPa | 0.51 mm | - | - | - |
| 1778078737 | 17.78° C | 87% | 1010.7 hPa | 0.51 mm | - | - | - |
| 1778078437 | 17.78° C | 87% | 1010.7 hPa | 0.25 mm | - | - | - |
| 1778078137 | 17.78° C | 87% | 1010.7 hPa | 0.25 mm | - | - | - |
| 1778077837 | 17.78° C | 86% | 1010.8 hPa | 0.25 mm | - | - | - |
| 1778077537 | 17.78° C | 85% | 1010.7 hPa | 0.25 mm | - | - | - |
| 1778077237 | 17.78° C | 84% | 1010.8 hPa | 0 mm | - | - | - |
* Rain latest hour (hover to see other rain measurements)
** Current wind speed in m/s (hover to see current wind gust speed)